This is the latest recevied weather packets stored in our database for station/object YD2CLX-13. If no packets are shown the sender has not sent any weather packets the latest 10 day(s).
| Time | Temp. | Humidity | Pressure | Rain* | Wind** | Luminosity | Snow |
|---|---|---|---|---|---|---|---|
| 1777631836 | 10.56° C | 70% | 796.9 hPa | 0 mm | - | - | - |
| 1777630605 | 10.56° C | 69% | 796.8 hPa | 0 mm | - | - | - |
| 1777629991 | 10.56° C | 69% | 796.8 hPa | 0 mm | - | - | - |
| 1777629375 | 11.11° C | 69% | 796.7 hPa | 0 mm | - | - | - |
| 1777628760 | 11.11° C | 69% | 796.5 hPa | 0 mm | - | - | - |
| 1777628143 | 11.11° C | 69% | 796.4 hPa | 0 mm | - | - | - |
| 1777627526 | 11.67° C | 69% | 796.4 hPa | 0 mm | - | - | - |
| 1777626911 | 11.11° C | 69% | 796.4 hPa | 0 mm | - | - | - |
| 1777626295 | 11.11° C | 69% | 796.4 hPa | 0 mm | - | - | - |
| 1777625679 | 11.11° C | 68% | 796.3 hPa | 0 mm | - | - | - |
| 1777625063 | 12.22° C | 68% | 796.3 hPa | 0 mm | - | - | - |
| 1777624447 | 12.78° C | 68% | 796.3 hPa | 0 mm | - | - | - |
| 1777623832 | 12.22° C | 68% | 796.3 hPa | 0 mm | - | - | - |
| 1777623215 | 12.78° C | 68% | 796.3 hPa | 0 mm | - | - | - |
| 1777621982 | 11.67° C | 68% | 796.5 hPa | 0 mm | - | - | - |
| 1777621367 | 11.67° C | 68% | 796.6 hPa | 0 mm | - | - | - |
| 1777620752 | 11.67° C | 68% | 796.6 hPa | 0 mm | - | - | - |
| 1777620135 | 13.33° C | 68% | 796.6 hPa | 0 mm | - | - | - |
| 1777619520 | 12.78° C | 69% | 796.7 hPa | 0 mm | - | - | - |
| 1777618906 | 15° C | 69% | 796.9 hPa | 0 mm | - | - | - |
| 1777618290 | 13.33° C | 69% | 797 hPa | 0 mm | - | - | - |
| 1777617673 | 13.33° C | 69% | 797 hPa | 0 mm | - | - | - |
| 1777617059 | 11.67° C | 69% | 797.1 hPa | 0 mm | - | - | - |
| 1777616443 | 11.67° C | 69% | 797.4 hPa | 0 mm | - | - | - |
| 1777615213 | 14.44° C | 69% | 797.4 hPa | 0 mm | - | - | - |
* Rain latest hour (hover to see other rain measurements)
** Current wind speed in m/s (hover to see current wind gust speed)